Вернуться в каталог

STARLINK-33769

АктивенСвязьVLEO
NORAD 63773·PAYLOAD·🇺🇸 United States

Запущен Apr 29, 2025 с Cape Canaveral Space Force Station

Loading…

Ближайшие Пролёты (ближайшие 24 часа)

TLE

СвежийSource: CelesTrak SupGP

Эпоха: Sep 14, 2026, 21:19 UTC

1 63773C 25089X   26257.88868056  .00057382  00000+0  20785-2 0  2576
2 63773  43.0009  56.4685 0001627 276.3368 175.5597 15.27546994    11

Отслеживайте STARLINK-33769 в реальном времени с AllMySat

Download on the App Store